Regional Weather Roundup
Issued by NWS

Home | Current Version | Previous Version | Text Only | Print | Product List | Glossary On
Versions: 1 2 3 4 5 6 7 8 9 10 11 12 13 14 15 16 17 18 19 20 21 22 23 24 25 26 27 28 29 30 31 32 33 34 35 36 37 38 39 40 41 42 43 44 45 46 47 48 49 50
784
ASUS44 KJAN 290310
RWRMS

MISSISSIPPI HOURLY WEATHER ROUNDUP
NATIONAL WEATHER SERVICE JACKSON MS
1000 PM CDT SAT MAR 28 2015

NOTE: "FAIR: INDICATES FEW OR NO CLOUDS BELOW 12,000 FEET WITH NO
SIGNIFICANT WEATHER AND/OR OBSTRUCTIONS TO VISIBILITY.

MSZ001>002-007>008-010>013-018>021-025>028-034>036-290400-
NORTHWEST MISSISSIPPI

CITY           SKY/WX    TMP DP  RH WIND       PRES   REMARKS
CLARKSDALE     FAIR      39  32  75 E5        30.33S
CLEVELAND      FAIR      40  35  82 E9        30.30R WCI  34
GREENWOOD      CLEAR     40  30  67 NE10      30.30S WCI  33
GREENVILLE     CLEAR     43  33  68 E9        30.28R
OLIVE BRANCH   CLOUDY    37  32  81 S3        30.32S
OXFORD         CLOUDY    37  32  81 CALM      30.34S
TUNICA         PTCLDY    39  32  75 E3        30.34S
$$

MSZ003>006-009-014>017-022>024-029>033-037>039-290400-
NORTHEAST MISSISSIPPI

CITY           SKY/WX    TMP DP  RH WIND       PRES   REMARKS
COLUMBUS AFB   CLOUDY    42  31  66 W5        30.33R
CORINTH        CLOUDY    39  32  75 CALM      30.31R
GOLDN TRIANGLE PTCLDY    41  30  65 CALM      30.32R
STARKVILLE     FAIR      34  32  93 CALM      30.34R
TUPELO         CLOUDY    41  31  67 CALM      30.33R
$$

MSZ040-058-290400-
CENTRAL MISSISSIPPI

CITY           SKY/WX    TMP DP  RH WIND       PRES   REMARKS
JACKSON INTL   PTCLDY    46  33  60 E7        30.27R
JACKSON HAWKNS CLEAR     46  33  60 E8        30.27R
MERIDIAN KEY   CLEAR     42  30  62 NE7       30.29R
MERIDIAN NAS   NOT AVBL
RAYMOND        FAIR      48  43  81 E9G18     30.25R
VICKSBURG      LGT RAIN  52  35  52 E14       30.23R
$$

MSZ059>079-290400-
SOUTH MISSISSIPPI

CITY           SKY/WX    TMP DP  RH WIND       PRES   REMARKS
BROOKHAVEN     FAIR      50  39  66 CALM      30.25R
HATTIESBURG    CLEAR     50  35  56 E6        30.27R
MCCOMB         CLEAR     54  40  59 E7        30.23R
NATCHEZ        CLEAR     57  43  58 E10       30.20R
PINE BELT      CLEAR     46  32  57 NE6       30.27R
$$

MSZ080>082-290400-
COASTAL MISSISSIPPI

CITY           SKY/WX    TMP DP  RH WIND       PRES   REMARKS
BILOXI         FAIR      53  48  81 NE5       30.24R
PASCAGOULA     CLEAR     49  46  90 CALM      30.26R
GULFPORT       CLEAR     55  46  71 N6        30.24R
$$



USA.gov is the U.S. government's official web portal to all federal, state and local government web resources and services.